START_TIME,STEP,MOV.,P11,t_acc.,P23,t_acc.,P27,t_acc.,A4,t_acc.
1989-08-27T09:00:23.670 ,4,0,0.,4.8,0.,4.8,0.,4.8,0.,4.8
1989-08-27T09:00:28.470 ,4,0,0.,4.8,0.,4.8,0.,4.8,0.,4.8
1989-08-27T09:00:33.270 ,4,0,0.,4.8,0.,4.8,0.,4.8,0.,4.8
1989-08-27T09:00:38.070 ,4,0,0.,4.8,0.,4.8,0.,4.8,0.,4.8
1989-08-27T09:00:42.870 ,4,0,0.,4.8,0.,4.8,0.,4.8,0.,4.8
1989-08-27T09:00:47.660 ,5,0,0.,4.8,0.,4.8,0.,4.8,0.,4.8
1989-08-27T09:00:52.460 ,5,0,0.,4.8,0.,4.8,0.,4.8,0.,4.8
1989-08-27T09:00:57.260 ,5,0,0.,4.8,0.,4.8,0.,4.8,0.,4.8
1989-08-27T09:01:02.060 ,5,0,0.,4.8,0.,4.8,0.,4.8,0.,4.8
1989-08-27T09:01:06.860 ,5,0,0.,4.8,0.,4.8,0.,4.8,0.,4.8
1989-08-27T09:01:11.660 ,5,0,0.,4.8,0.,4.8,0.,4.8,0.,4.8
1989-08-27T09:01:16.460 ,5,0,0.,4.8,0.,4.8,0.,4.8,0.,4.8
1989-08-27T09:01:21.260 ,5,0,0.,4.8,0.,4.8,0.,4.8,0.,4.8
1989-08-27T09:01:26.060 ,5,0,0.,4.8,0.,4.8,0.,4.8,0.,4.8
1989-08-27T09:01:30.860 ,5,0,0.,4.8,0.,4.8,0.,4.8,0.,4.8
1989-08-27T09:01:35.660 ,6,0,0.,4.8,0.,4.8,0.,4.8,0.,4.8
1989-08-27T09:01:40.460 ,6,0,0.,4.8,0.,4.8,0.,4.8,0.,4.8
1989-08-27T09:01:45.260 ,6,0,0.,4.8,0.,4.8,0.,4.8,0.,4.8
1989-08-27T09:01:50.060 ,6,0,0.,4.8,0.,4.8,0.,4.8,0.,4.8
1989-08-27T09:01:54.860 ,6,0,0.,4.8,0.,4.8,0.,4.8,0.,4.8
1989-08-27T09:01:59.660 ,6,0,0.,4.8,0.,4.8,0.,4.8,0.,4.8
1989-08-27T09:02:04.460 ,6,0,0.,4.8,0.,4.8,0.,4.8,0.,4.8
1989-08-27T09:02:09.260 ,6,0,0.,4.8,0.,4.8,0.,4.8,0.,4.8
1989-08-27T09:02:14.060 ,6,0,0.,4.8,0.,4.8,0.,4.8,0.,4.8
1989-08-27T09:02:18.860 ,6,0,0.,4.8,0.,4.8,0.,4.8,0.,4.8
1989-08-27T09:02:23.660 ,7,0,0.,4.8,0.,4.8,0.,4.8,0.,4.8
1989-08-27T09:02:28.460 ,7,0,0.,4.8,0.,4.8,0.,4.8,0.,4.8
1989-08-27T09:02:33.260 ,7,0,0.,4.8,0.,4.8,0.,4.8,0.,4.8
1989-08-27T09:02:38.060 ,7,0,0.,4.8,0.,4.8,0.,4.8,0.,4.8
1989-08-27T09:02:42.860 ,7,0,0.,4.8,0.,4.8,0.,4.8,0.,4.8
1989-08-27T09:02:47.660 ,7,0,0.,4.8,0.,4.8,0.,4.8,0.,4.8
1989-08-27T09:02:52.460 ,7,0,0.,4.8,0.,4.8,0.,4.8,0.,4.8
1989-08-27T09:02:57.260 ,7,0,0.,4.8,0.,4.8,0.,4.8,0.,4.8
1989-08-27T09:03:02.060 ,7,0,0.,4.8,0.,4.8,0.,4.8,0.,4.8
1989-08-27T09:03:06.860 ,7,0,0.,4.8,0.,4.8,0.,4.8,0.,4.8
1989-08-27T09:03:11.660 ,7,0,0.,4.8,0.,4.8,0.,4.8,0.,4.8
1989-08-27T09:03:16.460 ,7,0,0.,4.8,0.,4.8,0.,4.8,0.,4.8
1989-08-27T09:03:21.260 ,7,0,0.,4.8,0.,4.8,0.,4.8,0.,4.8
1989-08-27T09:03:26.060 ,7,0,0.,4.8,0.,4.8,0.,4.8,0.,4.8
1989-08-27T09:03:30.860 ,7,0,0.,4.8,0.,4.8,0.,4.8,0.,4.8
1989-08-27T09:03:35.660 ,7,0,0.,4.8,0.,4.8,0.,4.8,0.,4.8
1989-08-27T09:03:40.460 ,7,0,0.,4.8,0.,4.8,0.,4.8,0.,4.8
1989-08-27T09:03:45.260 ,7,0,0.,4.8,0.,4.8,0.,4.8,0.,4.8
1989-08-27T09:03:50.060 ,7,0,0.,4.8,0.,4.8,0.,4.8,0.,4.8
1989-08-27T09:03:54.860 ,7,0,0.,4.8,0.,4.8,0.,4.8,0.,4.8
1989-08-27T09:03:59.660 ,6,0,0.,4.8,0.,4.8,0.,4.8,0.,4.8
1989-08-27T09:04:04.460 ,6,0,0.,4.8,0.,4.8,0.,4.8,0.,4.8
1989-08-27T09:04:09.260 ,6,0,0.,4.8,0.,4.8,0.,4.8,0.,4.8
1989-08-27T09:04:14.060 ,6,0,0.,4.8,0.,4.8,0.,4.8,0.,4.8
1989-08-27T09:04:18.860 ,6,0,0.,4.8,0.,4.8,0.,4.8,0.,4.8
1989-08-27T09:04:23.660 ,6,0,0.,4.8,0.,4.8,0.,4.8,0.,4.8
1989-08-27T09:04:28.460 ,6,0,0.,4.8,0.,4.8,0.,4.8,0.,4.8
1989-08-27T09:04:33.260 ,6,0,0.,4.8,0.,4.8,0.,4.8,0.,4.8
1989-08-27T09:04:38.060 ,6,0,0.,4.8,0.,4.8,0.,4.8,0.,4.8
1989-08-27T09:04:42.860 ,6,0,0.,4.8,0.,4.8,0.,4.8,0.,4.8
1989-08-27T09:04:47.660 ,5,0,0.,4.8,0.,4.8,0.,4.8,0.,4.8
1989-08-27T09:04:52.460 ,5,0,0.,4.8,0.,4.8,0.,4.8,0.,4.8
1989-08-27T09:04:57.260 ,5,0,0.,4.8,0.,4.8,0.,4.8,0.,4.8
1989-08-27T09:05:02.060 ,5,0,0.,4.8,0.,4.8,0.,4.8,0.,4.8
1989-08-27T09:05:06.860 ,5,0,0.,4.8,0.,4.8,0.,4.8,0.,4.8
1989-08-27T09:05:11.660 ,5,0,0.,4.8,0.,4.8,0.,4.8,0.,4.8
1989-08-27T09:05:16.460 ,5,0,0.,4.8,0.,4.8,0.,4.8,0.,4.8
1989-08-27T09:05:21.260 ,5,0,0.,4.8,0.,4.8,0.,4.8,0.,4.8
1989-08-27T09:05:26.060 ,5,0,0.,4.8,0.,4.8,0.,4.8,0.,4.8
1989-08-27T09:05:30.860 ,5,0,0.,4.8,0.,4.8,0.,4.8,0.,4.8
1989-08-27T09:05:35.660 ,4,0,0.,4.8,0.,4.8,0.,4.8,0.,4.8
1989-08-27T09:05:40.460 ,4,0,0.,4.8,0.,4.8,0.,4.8,0.,4.8
1989-08-27T09:05:45.260 ,4,0,0.,4.8,0.,4.8,0.,4.8,0.,4.8
1989-08-27T09:05:50.060 ,4,0,0.,4.8,0.,4.8,0.,4.8,0.,4.8
1989-08-27T09:05:54.860 ,4,0,0.,4.8,0.,4.8,0.,4.8,0.,4.8
1989-08-27T09:05:59.660 ,4,0,0.,4.8,0.,4.8,0.,4.8,0.,4.8
1989-08-27T09:06:04.460 ,4,0,0.,4.8,0.,4.8,0.,4.8,0.,4.8
1989-08-27T09:06:09.260 ,4,0,0.,4.8,0.,4.8,0.,4.8,0.,4.8
1989-08-27T09:06:14.060 ,4,0,0.,4.8,0.,4.8,0.,4.8,0.,4.8
1989-08-27T09:06:18.860 ,4,0,0.,4.8,0.,4.8,0.,4.8,0.,4.8
1989-08-27T09:06:23.660 ,3,0,0.,4.8,0.,4.8,0.,4.8,0.,4.8
1989-08-27T09:06:28.460 ,3,0,0.,4.8,0.,4.8,0.,4.8,0.,4.8
1989-08-27T09:06:33.260 ,3,0,0.,4.8,0.,4.8,0.,4.8,0.,4.8
1989-08-27T09:06:38.060 ,3,0,0.,4.8,0.,4.8,0.,4.8,0.,4.8
1989-08-27T09:06:42.860 ,3,0,0.,4.8,0.,4.8,0.,4.8,0.,4.8
1989-08-27T09:06:47.660 ,3,0,0.,4.8,0.,4.8,0.,4.8,0.,4.8
1989-08-27T09:06:52.460 ,3,0,0.,4.8,0.,4.8,0.,4.8,0.,4.8
1989-08-27T09:06:57.260 ,3,0,0.,4.8,0.,4.8,0.,4.8,0.,4.8
1989-08-27T09:07:02.060 ,3,0,0.,4.8,0.,4.8,0.,4.8,0.,4.8
1989-08-27T09:07:06.860 ,3,0,0.,4.8,0.,4.8,0.,4.8,0.,4.8
1989-08-27T09:07:11.660 ,2,0,0.,4.8,0.,4.8,0.,4.8,0.,4.8
1989-08-27T09:07:16.460 ,2,0,0.,4.8,0.,4.8,0.,4.8,0.,4.8
1989-08-27T09:07:21.260 ,2,0,0.,4.8,0.,4.8,0.,4.8,0.,4.8
1989-08-27T09:07:26.060 ,2,0,0.,4.8,0.,4.8,0.,4.8,0.,4.8
1989-08-27T09:07:30.860 ,2,0,0.,4.8,0.,4.8,0.,4.8,0.,4.8
1989-08-27T09:07:35.660 ,2,0,0.,4.8,0.,4.8,0.,4.8,0.,4.8
1989-08-27T09:07:40.460 ,2,0,0.,4.8,0.,4.8,0.,4.8,0.,4.8
1989-08-27T09:07:45.260 ,2,0,0.,4.8,0.,4.8,0.,4.8,0.,4.8
1989-08-27T09:07:50.060 ,2,0,0.,4.8,0.,4.8,0.,4.8,0.,4.8
1989-08-27T09:07:54.860 ,2,0,0.,4.8,0.,4.8,0.,4.8,0.,4.8
1989-08-27T09:07:59.660 ,1,0,0.,4.8,0.,4.8,0.,4.8,0.,4.8
1989-08-27T09:08:04.460 ,1,0,0.,4.8,0.,4.8,0.,4.8,0.,4.8
1989-08-27T09:08:09.260 ,1,0,0.,4.8,0.,4.8,0.,4.8,0.,4.8
1989-08-27T09:08:14.060 ,1,0,0.,4.8,0.,4.8,0.,4.8,0.,4.8
1989-08-27T09:08:18.860 ,1,0,0.,4.8,0.,4.8,0.,4.8,0.,4.8
1989-08-27T09:08:23.660 ,1,0,0.,4.8,0.,4.8,0.,4.8,0.,4.8
1989-08-27T09:08:28.460 ,1,0,0.,4.8,0.,4.8,0.,4.8,0.,4.8
1989-08-27T09:08:33.260 ,1,0,0.,4.8,0.,4.8,0.,4.8,0.,4.8
1989-08-27T09:08:38.060 ,1,0,0.,4.8,0.,4.8,0.,4.8,0.,4.8
1989-08-27T09:08:42.860 ,1,0,0.,4.8,0.,4.8,0.,4.8,0.,4.8
1989-08-27T09:08:47.660 ,0,0,0.,4.8,0.,4.8,0.,4.8,0.,4.8
1989-08-27T09:08:52.460 ,0,0,0.,4.8,0.,4.8,0.,4.8,0.,4.8
1989-08-27T09:08:57.260 ,0,0,0.,4.8,0.,4.8,0.,4.8,0.,4.8
1989-08-27T09:09:02.060 ,0,0,0.,4.8,0.,4.8,0.,4.8,0.,4.8
1989-08-27T09:09:06.860 ,0,0,0.,4.8,0.,4.8,0.,4.8,0.,4.8
1989-08-27T09:09:11.660 ,0,0,0.,4.8,0.,4.8,0.,4.8,0.,4.8
1989-08-27T09:09:16.460 ,0,0,0.,4.8,0.,4.8,0.,4.8,0.,4.8
1989-08-27T09:09:21.260 ,0,0,0.,4.8,0.,4.8,0.,4.8,0.,4.8
1989-08-27T09:09:26.060 ,0,0,0.,4.8,0.,4.8,0.,4.8,0.,4.8
1989-08-27T09:09:30.860 ,0,0,0.,4.8,0.,4.8,0.,4.8,0.,4.8
1989-08-27T09:09:35.660 ,0,0,0.,4.8,0.,4.8,0.,4.8,0.,4.8
1989-08-27T09:09:40.460 ,0,0,0.,4.8,0.,4.8,0.,4.8,0.,4.8
1989-08-27T09:09:45.260 ,0,0,0.,4.8,0.,4.8,0.,4.8,0.,4.8
1989-08-27T09:09:50.060 ,0,0,0.,4.8,0.,4.8,0.,4.8,0.,4.8
1989-08-27T09:09:54.860 ,0,0,0.,4.8,0.,4.8,0.,4.8,0.,4.8
1989-08-27T09:09:59.660 ,0,0,0.,4.8,0.,4.8,0.,4.8,0.,4.8
1989-08-27T09:10:04.460 ,0,0,0.,4.8,0.,4.8,0.,4.8,0.,4.8
1989-08-27T09:10:09.260 ,0,0,0.,4.8,0.,4.8,0.,4.8,0.,4.8
1989-08-27T09:10:14.060 ,0,0,0.,4.8,0.,4.8,0.,4.8,0.,4.8
1989-08-27T09:10:18.860 ,0,0,0.,4.8,0.,4.8,0.,4.8,0.,4.8
1989-08-27T09:10:23.660 ,1,0,0.,4.8,0.,4.8,0.,4.8,0.,4.8
1989-08-27T09:10:28.460 ,1,0,0.,4.8,0.,4.8,0.,4.8,0.,4.8
1989-08-27T09:10:33.260 ,1,0,0.,4.8,0.,4.8,0.,4.8,0.,4.8
1989-08-27T09:10:38.060 ,1,0,0.,4.8,0.,4.8,0.,4.8,0.,4.8
1989-08-27T09:10:42.860 ,1,0,0.,4.8,0.,4.8,0.,4.8,0.,4.8
1989-08-27T09:10:47.660 ,1,0,0.,4.8,0.,4.8,0.,4.8,0.,4.8
1989-08-27T09:10:52.460 ,1,0,0.,4.8,0.,4.8,0.,4.8,0.,4.8
1989-08-27T09:10:57.260 ,1,0,0.,4.8,0.,4.8,0.,4.8,0.,4.8
1989-08-27T09:11:02.060 ,1,0,0.,4.8,0.,4.8,0.,4.8,0.,4.8
1989-08-27T09:11:06.860 ,1,0,0.,4.8,0.,4.8,0.,4.8,0.,4.8
1989-08-27T09:11:11.660 ,2,0,0.,4.8,0.,4.8,0.,4.8,0.,4.8
1989-08-27T09:11:16.460 ,2,0,0.,4.8,0.,4.8,0.,4.8,0.,4.8
1989-08-27T09:11:21.260 ,2,0,0.,4.8,0.,4.8,0.,4.8,0.,4.8
1989-08-27T09:11:26.060 ,2,0,0.,4.8,0.,4.8,0.,4.8,0.,4.8
1989-08-27T09:11:30.860 ,2,0,0.,4.8,0.,4.8,0.,4.8,0.,4.8
1989-08-27T09:11:35.660 ,2,0,0.,4.8,0.,4.8,0.,4.8,0.,4.8
1989-08-27T09:11:40.460 ,2,0,0.,4.8,0.,4.8,0.,4.8,0.,4.8
1989-08-27T09:11:45.260 ,2,0,0.,4.8,0.,4.8,0.,4.8,0.,4.8
1989-08-27T09:11:50.060 ,2,0,0.,4.8,0.,4.8,0.,4.8,0.,4.8
1989-08-27T09:11:54.860 ,2,0,0.,4.8,0.,4.8,0.,4.8,0.,4.8
1989-08-27T09:11:59.660 ,3,0,0.,4.8,0.,4.8,0.,4.8,0.,4.8
1989-08-27T09:12:04.460 ,3,0,0.,4.8,0.,4.8,0.,4.8,0.,4.8
1989-08-27T09:12:09.260 ,3,0,0.,4.8,0.,4.8,0.,4.8,0.,4.8
1989-08-27T09:12:14.060 ,3,0,0.,4.8,0.,4.8,0.,4.8,0.,4.8
1989-08-27T09:12:18.860 ,3,0,0.,4.8,0.,4.8,0.,4.8,0.,4.8
1989-08-27T09:12:23.660 ,3,0,0.,4.8,0.,4.8,0.,4.8,0.,4.8
1989-08-27T09:12:28.460 ,3,0,0.,4.8,0.,4.8,0.,4.8,0.,4.8
1989-08-27T09:12:33.260 ,3,0,0.,4.8,0.,4.8,0.,4.8,0.,4.8
1989-08-27T09:12:38.060 ,3,0,0.,4.8,0.,4.8,0.,4.8,0.,4.8
1989-08-27T09:12:42.860 ,3,0,0.,4.8,0.,4.8,0.,4.8,0.,4.8
1989-08-27T09:12:47.660 ,4,0,0.,4.8,0.,4.8,0.,4.8,0.,4.8
1989-08-27T09:12:52.460 ,4,0,0.,4.8,0.,4.8,0.,4.8,0.,4.8
1989-08-27T09:12:57.260 ,4,0,0.,4.8,0.,4.8,0.,4.8,0.,4.8
1989-08-27T09:13:02.060 ,4,0,0.,4.8,0.,4.8,0.,4.8,0.,4.8
1989-08-27T09:13:06.860 ,4,0,0.,4.8,0.,4.8,0.,4.8,0.,4.8
1989-08-27T09:13:11.660 ,4,0,0.,4.8,0.,4.8,0.,4.8,0.,4.8
1989-08-27T09:13:16.460 ,4,0,0.,4.8,0.,4.8,0.,4.8,0.,4.8
1989-08-27T09:13:21.260 ,4,0,0.,4.8,0.,4.8,0.,4.8,0.,4.8
1989-08-27T09:13:26.060 ,4,0,0.,4.8,0.,4.8,0.,4.8,0.,4.8
1989-08-27T09:13:30.860 ,4,0,0.,4.8,0.,4.8,0.,4.8,0.,4.8
1989-08-27T09:13:35.660 ,5,0,0.,4.8,0.,4.8,0.,4.8,0.,4.8
1989-08-27T09:13:40.460 ,5,0,0.,4.8,0.,4.8,0.,4.8,0.,4.8
1989-08-27T09:13:45.260 ,5,0,0.,4.8,0.,4.8,0.,4.8,0.,4.8
1989-08-27T09:13:50.060 ,5,0,0.,4.8,0.,4.8,0.,4.8,0.,4.8
1989-08-27T09:13:54.860 ,5,0,0.,4.8,0.,4.8,0.,4.8,0.,4.8
1989-08-27T09:13:59.660 ,5,0,0.,4.8,0.,4.8,0.,4.8,0.,4.8
1989-08-27T09:14:04.460 ,5,0,0.,4.8,0.,4.8,0.,4.8,0.,4.8
1989-08-27T09:14:09.260 ,5,0,0.,4.8,0.,4.8,0.,4.8,0.,4.8
1989-08-27T09:14:14.060 ,5,0,0.,4.8,0.,4.8,0.,4.8,0.,4.8
1989-08-27T09:14:18.860 ,5,0,0.,4.8,0.,4.8,0.,4.8,0.,4.8
1989-08-27T09:14:23.660 ,6,0,0.,4.8,0.,4.8,0.,4.8,0.,4.8
1989-08-27T09:14:28.460 ,6,0,0.,4.8,0.,4.8,0.,4.8,0.,4.8
1989-08-27T09:14:33.260 ,6,0,0.,4.8,0.,4.8,0.,4.8,0.,4.8
1989-08-27T09:14:38.060 ,6,0,0.,4.8,0.,4.8,0.,4.8,0.,4.8
1989-08-27T09:14:42.860 ,6,0,0.,4.8,0.,4.8,0.,4.8,0.,4.8
1989-08-27T09:14:47.660 ,6,0,0.,4.8,0.,4.8,0.,4.8,0.,4.8
1989-08-27T09:14:52.460 ,6,0,0.,4.8,0.,4.8,0.,4.8,0.,4.8
1989-08-27T09:14:57.260 ,6,0,0.,4.8,0.,4.8,0.,4.8,0.,4.8
1989-08-27T09:15:02.060 ,6,0,0.,4.8,0.,4.8,0.,4.8,0.,4.8
1989-08-27T09:15:06.860 ,6,0,0.,4.8,0.,4.8,0.,4.8,0.,4.8
1989-08-27T09:15:11.660 ,7,0,0.,4.8,0.,4.8,0.,4.8,0.,4.8
1989-08-27T09:15:16.460 ,7,0,0.,4.8,0.,4.8,0.,4.8,0.,4.8
1989-08-27T09:15:21.260 ,7,0,0.,4.8,0.,4.8,0.,4.8,0.,4.8
1989-08-27T09:15:26.060 ,7,0,0.,4.8,0.,4.8,0.,4.8,0.,4.8
1989-08-27T09:15:30.860 ,7,0,0.,4.8,0.,4.8,0.,4.8,0.,4.8
1989-08-27T09:15:35.660 ,7,0,0.,4.8,0.,4.8,0.,4.8,0.,4.8
1989-08-27T09:15:40.460 ,7,0,0.,4.8,0.,4.8,0.,4.8,0.,4.8
1989-08-27T09:15:45.260 ,7,0,0.,4.8,0.,4.8,0.,4.8,0.,4.8
1989-08-27T09:15:50.060 ,7,0,0.,4.8,0.,4.8,0.,4.8,0.,4.8
1989-08-27T09:15:54.860 ,7,0,0.,4.8,0.,4.8,0.,4.8,0.,4.8
1989-08-27T09:15:59.660 ,7,0,0.,4.8,0.,4.8,0.,4.8,0.,4.8
1989-08-27T09:16:04.460 ,7,0,0.,4.8,0.,4.8,0.,4.8,0.,4.8
1989-08-27T09:16:09.260 ,7,0,0.,4.8,0.,4.8,0.,4.8,0.,4.8
1989-08-27T09:16:14.060 ,7,0,0.,4.8,0.,4.8,0.,4.8,0.,4.8
1989-08-27T09:16:18.860 ,7,0,0.,4.8,0.,4.8,0.,4.8,0.,4.8
1989-08-27T09:16:23.660 ,7,0,0.,4.8,0.,4.8,0.,4.8,0.,4.8
1989-08-27T09:16:28.460 ,7,0,0.,4.8,0.,4.8,0.,4.8,0.,4.8
1989-08-27T09:16:33.260 ,7,0,0.,4.8,0.,4.8,0.,4.8,0.,4.8
1989-08-27T09:16:38.060 ,7,0,0.,4.8,0.,4.8,0.,4.8,0.,4.8
1989-08-27T09:16:42.860 ,7,0,0.,4.8,0.,4.8,0.,4.8,0.,4.8
1989-08-27T09:16:47.660 ,6,0,0.,4.8,0.,4.8,0.,4.8,0.,4.8
1989-08-27T09:16:52.460 ,6,0,0.,4.8,0.,4.8,0.,4.8,0.,4.8
1989-08-27T09:16:57.260 ,6,0,0.,4.8,0.,4.8,0.,4.8,0.,4.8
1989-08-27T09:17:02.060 ,6,0,0.,4.8,0.,4.8,0.,4.8,0.,4.8
1989-08-27T09:17:06.860 ,6,0,0.,4.8,0.,4.8,0.,4.8,0.,4.8
1989-08-27T09:17:11.660 ,6,0,0.,4.8,0.,4.8,0.,4.8,0.,4.8
1989-08-27T09:17:16.460 ,6,0,0.,4.8,0.,4.8,0.,4.8,0.,4.8
1989-08-27T09:17:21.260 ,6,0,0.,4.8,0.,4.8,0.,4.8,0.,4.8
1989-08-27T09:17:26.060 ,6,0,0.,4.8,0.,4.8,0.,4.8,0.,4.8
1989-08-27T09:17:30.860 ,6,0,0.,4.8,0.,4.8,0.,4.8,0.,4.8
1989-08-27T09:17:35.660 ,5,0,0.,4.8,0.,4.8,0.,4.8,0.,4.8
1989-08-27T09:17:40.460 ,5,0,0.,4.8,0.,4.8,0.,4.8,0.,4.8
1989-08-27T09:17:45.260 ,5,0,0.,4.8,0.,4.8,0.,4.8,0.,4.8
1989-08-27T09:17:50.060 ,5,0,0.,4.8,0.,4.8,0.,4.8,0.,4.8
1989-08-27T09:17:54.860 ,5,0,0.,4.8,0.,4.8,0.,4.8,0.,4.8
1989-08-27T09:17:59.660 ,5,0,0.,4.8,0.,4.8,0.,4.8,0.,4.8
1989-08-27T09:18:04.460 ,5,0,0.,4.8,0.,4.8,0.,4.8,0.,4.8
1989-08-27T09:18:09.260 ,5,0,0.,4.8,0.,4.8,0.,4.8,0.,4.8
1989-08-27T09:18:14.060 ,5,0,0.,4.8,0.,4.8,0.,4.8,0.,4.8
1989-08-27T09:18:18.860 ,5,0,0.,4.8,0.,4.8,0.,4.8,0.,4.8
1989-08-27T09:18:23.660 ,4,0,0.,4.8,0.,4.8,0.,4.8,0.,4.8
1989-08-27T09:18:28.460 ,4,0,0.,4.8,0.,4.8,0.,4.8,0.,4.8
1989-08-27T09:18:33.260 ,4,0,0.,4.8,0.,4.8,0.,4.8,0.,4.8
1989-08-27T09:18:38.060 ,4,0,0.,4.8,0.,4.8,0.,4.8,0.,4.8
1989-08-27T09:18:42.860 ,4,0,0.,4.8,0.,4.8,0.,4.8,0.,4.8
1989-08-27T09:18:47.660 ,4,0,0.,4.8,0.,4.8,0.,4.8,0.,4.8
1989-08-27T09:18:52.460 ,4,0,0.,4.8,0.,4.8,0.,4.8,0.,4.8
1989-08-27T09:18:57.260 ,4,0,0.,4.8,0.,4.8,0.,4.8,0.,4.8
1989-08-27T09:19:02.060 ,4,0,0.,4.8,0.,4.8,0.,4.8,0.,4.8
1989-08-27T09:19:06.860 ,4,0,0.,4.8,0.,4.8,0.,4.8,0.,4.8
1989-08-27T09:19:11.660 ,3,0,0.,4.8,0.,4.8,0.,4.8,0.,4.8
1989-08-27T09:19:16.460 ,3,0,0.,4.8,0.,4.8,0.,4.8,0.,4.8
1989-08-27T09:19:21.260 ,3,0,0.,4.8,0.,4.8,0.,4.8,0.,4.8
1989-08-27T09:19:26.060 ,3,0,0.,4.8,0.,4.8,0.,4.8,0.,4.8
1989-08-27T09:19:30.860 ,3,0,0.,4.8,0.,4.8,0.,4.8,0.,4.8
1989-08-27T09:19:35.660 ,3,0,0.,4.8,0.,4.8,0.,4.8,0.,4.8
1989-08-27T09:19:40.460 ,3,0,0.,4.8,0.,4.8,0.,4.8,0.,4.8
1989-08-27T09:19:45.260 ,3,0,0.,4.8,0.,4.8,0.,4.8,0.,4.8
1989-08-27T09:19:50.060 ,3,0,0.,4.8,0.,4.8,0.,4.8,0.,4.8
1989-08-27T09:19:54.860 ,3,0,0.,4.8,0.,4.8,0.,4.8,0.,4.8
1989-08-27T09:19:59.660 ,2,0,0.,4.8,0.,4.8,0.,4.8,0.,4.8
1989-08-27T09:20:04.460 ,2,0,0.,4.8,0.,4.8,0.,4.8,0.,4.8
1989-08-27T09:20:09.260 ,2,0,0.,4.8,0.,4.8,0.,4.8,0.,4.8
1989-08-27T09:20:14.060 ,2,0,0.,4.8,0.,4.8,0.,4.8,0.,4.8
1989-08-27T09:20:18.860 ,2,0,0.,4.8,0.,4.8,0.,4.8,0.,4.8
1989-08-27T09:20:23.660 ,2,0,0.,4.8,0.,4.8,0.,4.8,0.,4.8
1989-08-27T09:20:28.460 ,2,0,0.,4.8,0.,4.8,0.,4.8,0.,4.8
1989-08-27T09:20:33.260 ,2,0,0.,4.8,0.,4.8,0.,4.8,0.,4.8
1989-08-27T09:20:38.060 ,2,0,0.,4.8,0.,4.8,0.,4.8,0.,4.8
1989-08-27T09:20:42.860 ,2,0,0.,4.8,0.,4.8,0.,4.8,0.,4.8
1989-08-27T09:20:47.660 ,1,0,0.,4.8,0.,4.8,0.,4.8,0.,4.8
1989-08-27T09:20:52.460 ,1,0,0.,4.8,0.,4.8,0.,4.8,0.,4.8
1989-08-27T09:20:57.260 ,1,0,0.,4.8,0.,4.8,0.,4.8,0.,4.8
1989-08-27T09:21:02.060 ,1,0,0.,4.8,0.,4.8,0.,4.8,0.,4.8
1989-08-27T09:21:06.860 ,1,0,0.,4.8,0.,4.8,0.,4.8,0.,4.8
1989-08-27T09:21:11.660 ,1,0,0.,4.8,0.,4.8,0.,4.8,0.,4.8
1989-08-27T09:21:16.460 ,1,0,0.,4.8,0.,4.8,0.,4.8,0.,4.8
1989-08-27T09:21:21.260 ,1,0,0.,4.8,0.,4.8,0.,4.8,0.,4.8
1989-08-27T09:21:26.060 ,1,0,0.,4.8,0.,4.8,0.,4.8,0.,4.8
1989-08-27T09:21:30.860 ,1,0,0.,4.8,0.,4.8,0.,4.8,0.,4.8
1989-08-27T09:21:35.660 ,0,0,0.,4.8,0.,4.8,0.,4.8,0.,4.8
1989-08-27T09:21:40.460 ,0,0,0.,4.8,0.,4.8,0.,4.8,0.,4.8
1989-08-27T09:21:45.260 ,0,0,0.,4.8,0.,4.8,0.,4.8,0.,4.8
1989-08-27T09:21:50.060 ,0,0,0.,4.8,0.,4.8,0.,4.8,0.,4.8
1989-08-27T09:21:54.860 ,0,0,0.,4.8,0.,4.8,0.,4.8,0.,4.8
1989-08-27T09:21:59.660 ,0,0,0.,4.8,0.,4.8,0.,4.8,0.,4.8
1989-08-27T09:22:04.460 ,0,0,0.,4.8,0.,4.8,0.,4.8,0.,4.8
1989-08-27T09:22:09.260 ,0,0,0.,4.8,0.,4.8,0.,4.8,0.,4.8
1989-08-27T09:22:14.060 ,0,0,0.,4.8,0.,4.8,0.,4.8,0.,4.8
1989-08-27T09:22:18.860 ,0,0,0.,4.8,0.,4.8,0.,4.8,0.,4.8
1989-08-27T09:22:23.660 ,0,0,0.,4.8,0.,4.8,0.,4.8,0.,4.8
1989-08-27T09:22:28.460 ,0,0,0.,4.8,0.,4.8,0.,4.8,0.,4.8
1989-08-27T09:22:33.260 ,0,0,0.,4.8,0.,4.8,0.,4.8,0.,4.8
1989-08-27T09:22:38.060 ,0,0,0.,4.8,0.,4.8,0.,4.8,0.,4.8
1989-08-27T09:22:42.860 ,0,0,0.,4.8,0.,4.8,0.,4.8,0.,4.8
1989-08-27T09:22:47.660 ,0,0,0.,4.8,0.,4.8,0.,4.8,0.,4.8
1989-08-27T09:22:52.460 ,0,0,0.,4.8,0.,4.8,0.,4.8,0.,4.8
1989-08-27T09:22:57.260 ,0,0,0.,4.8,0.,4.8,0.,4.8,0.,4.8
1989-08-27T09:23:02.060 ,0,0,0.,4.8,0.,4.8,0.,4.8,0.,4.8
1989-08-27T09:23:06.860 ,0,0,0.,4.8,0.,4.8,0.,4.8,0.,4.8
1989-08-27T09:23:11.660 ,1,0,0.,4.8,0.,4.8,0.,4.8,0.,4.8
1989-08-27T09:23:16.460 ,1,0,0.,4.8,0.,4.8,0.,4.8,0.,4.8
1989-08-27T09:23:21.260 ,1,0,0.,4.8,0.,4.8,0.,4.8,0.,4.8
1989-08-27T09:23:26.060 ,1,0,0.,4.8,0.,4.8,0.,4.8,0.,4.8
1989-08-27T09:23:30.860 ,1,0,0.,4.8,0.,4.8,0.,4.8,0.,4.8
1989-08-27T09:23:35.660 ,1,0,0.,4.8,0.,4.8,0.,4.8,0.,4.8
1989-08-27T09:23:40.460 ,1,0,0.,4.8,0.,4.8,0.,4.8,0.,4.8
1989-08-27T09:23:45.260 ,1,0,0.,4.8,0.,4.8,0.,4.8,0.,4.8
1989-08-27T09:23:50.060 ,1,0,0.,4.8,0.,4.8,0.,4.8,0.,4.8
1989-08-27T09:23:54.860 ,1,0,0.,4.8,0.,4.8,0.,4.8,0.,4.8
1989-08-27T09:23:59.660 ,2,0,0.,4.8,0.,4.8,0.,4.8,0.,4.8
1989-08-27T09:24:04.460 ,2,0,0.,4.8,0.,4.8,0.,4.8,0.,4.8
1989-08-27T09:24:09.260 ,2,0,0.,4.8,0.,4.8,0.,4.8,0.,4.8
1989-08-27T09:24:14.060 ,2,0,0.,4.8,0.,4.8,0.,4.8,0.,4.8
1989-08-27T09:24:18.860 ,2,0,0.,4.8,0.,4.8,0.,4.8,0.,4.8
1989-08-27T09:24:23.660 ,2,0,0.,4.8,0.,4.8,0.,4.8,0.,4.8
1989-08-27T09:24:28.460 ,2,0,0.,4.8,0.,4.8,0.,4.8,0.,4.8
1989-08-27T09:24:33.260 ,2,0,0.,4.8,0.,4.8,0.,4.8,0.,4.8
1989-08-27T09:24:38.060 ,2,0,0.,4.8,0.,4.8,0.,4.8,0.,4.8
1989-08-27T09:24:42.860 ,2,0,0.,4.8,0.,4.8,0.,4.8,0.,4.8
1989-08-27T09:24:47.660 ,3,0,0.,4.8,0.,4.8,0.,4.8,0.,4.8
1989-08-27T09:24:52.460 ,3,0,0.,4.8,0.,4.8,0.,4.8,0.,4.8
1989-08-27T09:24:57.260 ,3,0,0.,4.8,0.,4.8,0.,4.8,0.,4.8
1989-08-27T09:25:02.060 ,3,0,0.,4.8,0.,4.8,0.,4.8,0.,4.8
1989-08-27T09:25:06.860 ,3,0,0.,4.8,0.,4.8,0.,4.8,0.,4.8
1989-08-27T09:25:11.660 ,3,0,0.,4.8,0.,4.8,0.,4.8,0.,4.8
1989-08-27T09:25:16.460 ,3,0,0.,4.8,0.,4.8,0.,4.8,0.,4.8
1989-08-27T09:25:21.260 ,3,0,0.,4.8,0.,4.8,0.,4.8,0.,4.8
1989-08-27T09:25:26.060 ,3,0,0.,4.8,0.,4.8,0.,4.8,0.,4.8
1989-08-27T09:25:30.860 ,3,0,0.,4.8,0.,4.8,0.,4.8,0.,4.8
1989-08-27T09:25:35.660 ,4,0,0.,4.8,0.,4.8,0.,4.8,0.,4.8
1989-08-27T09:25:40.460 ,4,0,0.,4.8,0.,4.8,0.,4.8,0.,4.8
1989-08-27T09:25:45.260 ,4,0,0.,4.8,0.,4.8,0.,4.8,0.,4.8
1989-08-27T09:25:50.060 ,4,0,0.,4.8,0.,4.8,0.,4.8,0.,4.8
1989-08-27T09:25:54.860 ,4,0,0.,4.8,0.,4.8,0.,4.8,0.,4.8
1989-08-27T09:25:59.660 ,4,0,0.,4.8,0.,4.8,0.,4.8,0.,4.8
1989-08-27T09:26:04.460 ,4,0,0.,4.8,0.,4.8,0.,4.8,0.,4.8
1989-08-27T09:26:09.260 ,4,0,0.,4.8,0.,4.8,0.,4.8,0.,4.8
1989-08-27T09:26:14.060 ,4,0,0.,4.8,0.,4.8,0.,4.8,0.,4.8
1989-08-27T09:26:18.860 ,4,0,0.,4.8,0.,4.8,0.,4.8,0.,4.8
1989-08-27T09:26:23.660 ,5,0,0.,4.8,0.,4.8,0.,4.8,0.,4.8
1989-08-27T09:26:28.460 ,5,0,0.,4.8,0.,4.8,0.,4.8,0.,4.8
1989-08-27T09:26:33.260 ,5,0,0.,4.8,0.,4.8,0.,4.8,0.,4.8
1989-08-27T09:26:38.060 ,5,0,0.,4.8,0.,4.8,0.,4.8,0.,4.8
1989-08-27T09:26:42.860 ,5,0,0.,4.8,0.,4.8,0.,4.8,0.,4.8
1989-08-27T09:26:47.660 ,5,0,0.,4.8,0.,4.8,0.,4.8,0.,4.8
1989-08-27T09:26:52.460 ,5,0,0.,4.8,0.,4.8,0.,4.8,0.,4.8
1989-08-27T09:26:57.260 ,5,0,0.,4.8,0.,4.8,0.,4.8,0.,4.8
1989-08-27T09:27:02.060 ,5,0,0.,4.8,0.,4.8,0.,4.8,0.,4.8
1989-08-27T09:27:06.860 ,5,0,0.,4.8,0.,4.8,0.,4.8,0.,4.8
1989-08-27T09:27:11.660 ,6,0,0.,4.8,0.,4.8,0.,4.8,0.,4.8
1989-08-27T09:27:16.460 ,6,0,0.,4.8,0.,4.8,0.,4.8,0.,4.8
1989-08-27T09:27:21.260 ,6,0,0.,4.8,0.,4.8,0.,4.8,0.,4.8
1989-08-27T09:27:26.060 ,6,0,0.,4.8,0.,4.8,0.,4.8,0.,4.8
1989-08-27T09:27:30.860 ,6,0,0.,4.8,0.,4.8,0.,4.8,1.,4.8
1989-08-27T09:27:35.660 ,6,0,0.,4.8,0.,4.8,0.,4.8,0.,4.8
1989-08-27T09:27:40.460 ,6,0,0.,4.8,0.,4.8,0.,4.8,0.,4.8
1989-08-27T09:27:45.260 ,6,0,0.,4.8,0.,4.8,0.,4.8,0.,4.8
1989-08-27T09:27:50.060 ,6,0,0.,4.8,0.,4.8,0.,4.8,0.,4.8
1989-08-27T09:27:54.860 ,6,0,0.,4.8,0.,4.8,0.,4.8,0.,4.8
1989-08-27T09:27:59.660 ,7,0,0.,4.8,0.,4.8,0.,4.8,0.,4.8
1989-08-27T09:28:04.460 ,7,0,0.,4.8,0.,4.8,0.,4.8,0.,4.8
1989-08-27T09:28:09.260 ,7,0,0.,4.8,0.,4.8,0.,4.8,0.,4.8
1989-08-27T09:28:14.060 ,7,0,0.,4.8,0.,4.8,0.,4.8,0.,4.8
1989-08-27T09:28:18.860 ,7,0,0.,4.8,0.,4.8,0.,4.8,0.,4.8
1989-08-27T09:28:23.660 ,7,0,0.,4.8,0.,4.8,0.,4.8,0.,4.8
1989-08-27T09:28:28.460 ,7,0,0.,4.8,0.,4.8,0.,4.8,0.,4.8
1989-08-27T09:28:33.260 ,7,0,0.,4.8,0.,4.8,0.,4.8,0.,4.8
1989-08-27T09:28:38.060 ,7,0,0.,4.8,0.,4.8,0.,4.8,0.,4.8
1989-08-27T09:28:42.860 ,7,0,0.,4.8,0.,4.8,0.,4.8,0.,4.8
1989-08-27T09:28:47.660 ,7,0,0.,4.8,0.,4.8,0.,4.8,0.,4.8
1989-08-27T09:28:52.460 ,7,0,0.,4.8,0.,4.8,0.,4.8,0.,4.8
1989-08-27T09:28:57.260 ,7,0,0.,4.8,0.,4.8,0.,4.8,0.,4.8
1989-08-27T09:29:02.060 ,7,0,0.,4.8,0.,4.8,0.,4.8,0.,4.8
1989-08-27T09:29:06.860 ,7,0,0.,4.8,0.,4.8,0.,4.8,0.,4.8
1989-08-27T09:29:11.660 ,7,0,0.,4.8,0.,4.8,0.,4.8,0.,4.8
1989-08-27T09:29:16.460 ,7,0,0.,4.8,0.,4.8,0.,4.8,0.,4.8
1989-08-27T09:29:21.260 ,7,0,0.,4.8,0.,4.8,0.,4.8,0.,4.8
1989-08-27T09:29:26.060 ,7,0,0.,4.8,0.,4.8,0.,4.8,0.,4.8
1989-08-27T09:29:30.860 ,7,0,0.,4.8,0.,4.8,0.,4.8,0.,4.8
1989-08-27T09:29:35.660 ,6,0,0.,4.8,0.,4.8,0.,4.8,0.,4.8
1989-08-27T09:29:40.460 ,6,0,0.,4.8,0.,4.8,0.,4.8,0.,4.8
1989-08-27T09:29:45.260 ,6,0,0.,4.8,0.,4.8,0.,4.8,0.,4.8
1989-08-27T09:29:50.060 ,6,0,0.,4.8,0.,4.8,0.,4.8,0.,4.8
1989-08-27T09:29:54.860 ,6,0,0.,4.8,0.,4.8,0.,4.8,0.,4.8
1989-08-27T09:29:59.660 ,6,0,0.,4.8,0.,4.8,0.,4.8,0.,4.8
1989-08-27T09:30:04.460 ,6,0,0.,4.8,0.,4.8,0.,4.8,1.,4.8
1989-08-27T09:30:09.260 ,6,0,0.,4.8,0.,4.8,0.,4.8,0.,4.8
1989-08-27T09:30:14.060 ,6,0,0.,4.8,0.,4.8,0.,4.8,0.,4.8
1989-08-27T09:30:18.860 ,6,0,0.,4.8,0.,4.8,0.,4.8,0.,4.8
1989-08-27T09:30:23.660 ,5,0,0.,4.8,0.,4.8,0.,4.8,0.,4.8
1989-08-27T09:30:28.460 ,5,0,0.,4.8,0.,4.8,0.,4.8,0.,4.8
1989-08-27T09:30:33.260 ,5,0,0.,4.8,0.,4.8,0.,4.8,0.,4.8
1989-08-27T09:30:38.060 ,5,0,0.,4.8,0.,4.8,0.,4.8,0.,4.8
1989-08-27T09:30:42.860 ,5,0,0.,4.8,0.,4.8,0.,4.8,0.,4.8
1989-08-27T09:30:47.660 ,5,0,0.,4.8,0.,4.8,0.,4.8,0.,4.8
1989-08-27T09:30:52.460 ,5,0,0.,4.8,0.,4.8,0.,4.8,0.,4.8
1989-08-27T09:30:57.260 ,5,0,0.,4.8,0.,4.8,0.,4.8,0.,4.8
1989-08-27T09:31:02.060 ,5,0,0.,4.8,0.,4.8,0.,4.8,0.,4.8
1989-08-27T09:31:06.860 ,5,0,0.,4.8,0.,4.8,0.,4.8,0.,4.8
1989-08-27T09:31:11.660 ,4,0,0.,4.8,0.,4.8,0.,4.8,0.,4.8
1989-08-27T09:31:16.460 ,4,0,0.,4.8,0.,4.8,0.,4.8,0.,4.8
1989-08-27T09:31:21.260 ,4,0,0.,4.8,0.,4.8,0.,4.8,0.,4.8
1989-08-27T09:31:26.060 ,4,0,0.,4.8,0.,4.8,0.,4.8,0.,4.8
1989-08-27T09:31:30.860 ,4,0,0.,4.8,0.,4.8,0.,4.8,0.,4.8
1989-08-27T09:31:35.660 ,4,0,0.,4.8,0.,4.8,0.,4.8,0.,4.8
1989-08-27T09:31:40.460 ,4,0,0.,4.8,0.,4.8,0.,4.8,0.,4.8
1989-08-27T09:31:45.260 ,4,0,0.,4.8,0.,4.8,0.,4.8,0.,4.8
1989-08-27T09:31:50.060 ,4,0,0.,4.8,0.,4.8,0.,4.8,0.,4.8
1989-08-27T09:31:54.860 ,4,0,0.,4.8,0.,4.8,0.,4.8,0.,4.8
1989-08-27T09:31:59.660 ,3,0,0.,4.8,0.,4.8,0.,4.8,0.,4.8
1989-08-27T09:32:04.460 ,3,0,0.,4.8,0.,4.8,0.,4.8,0.,4.8
1989-08-27T09:32:09.260 ,3,0,0.,4.8,0.,4.8,0.,4.8,0.,4.8
1989-08-27T09:32:14.060 ,3,0,0.,4.8,0.,4.8,0.,4.8,0.,4.8
1989-08-27T09:32:18.860 ,3,0,0.,4.8,0.,4.8,0.,4.8,0.,4.8
1989-08-27T09:32:23.660 ,3,0,0.,4.8,0.,4.8,0.,4.8,0.,4.8
1989-08-27T09:32:28.460 ,3,0,0.,4.8,0.,4.8,0.,4.8,0.,4.8
1989-08-27T09:32:33.260 ,3,0,0.,4.8,0.,4.8,0.,4.8,0.,4.8
1989-08-27T09:32:38.060 ,3,0,0.,4.8,0.,4.8,0.,4.8,0.,4.8
1989-08-27T09:32:42.860 ,3,0,0.,4.8,0.,4.8,0.,4.8,0.,4.8
1989-08-27T09:32:47.660 ,2,0,0.,4.8,0.,4.8,0.,4.8,0.,4.8
1989-08-27T09:32:52.460 ,2,0,0.,4.8,0.,4.8,0.,4.8,0.,4.8
1989-08-27T09:32:57.260 ,2,0,0.,4.8,0.,4.8,0.,4.8,0.,4.8
1989-08-27T09:33:02.060 ,2,0,0.,4.8,0.,4.8,0.,4.8,0.,4.8
1989-08-27T09:33:06.860 ,2,0,0.,4.8,0.,4.8,0.,4.8,0.,4.8
1989-08-27T09:33:11.660 ,2,0,0.,4.8,0.,4.8,0.,4.8,0.,4.8
1989-08-27T09:33:16.460 ,2,0,0.,4.8,0.,4.8,0.,4.8,0.,4.8